AUA740 EDDS-LOWW

Flight info

Callsign AUA740
Flight time 1h 16m
Altitude 31000
Route ABTAL4B/25 ABTAL L173 RIXED Y161 RIDAR Z98 MIQ L605 BIBAG Q104 AKIMA DCT MASUR MASUR3W
Aircraft A320/M-SDE3FGHIRWY/LB1

Departure

Time 2026-05-06 18:03
Airport Stuttgart Airport (EDDS)

Arrival

Time 2026-05-06 19:19
Airport Vienna International Airport (LOWW)
Time Latitude Longitude Altitude Speed Heading
2026-05-06 17:33 48.68916 9.19587 1288 ft 0 kts 342°
2026-05-06 17:50 48.68902 9.19593 1290 ft 4 kts 349°
2026-05-06 17:50 48.68876 9.19596 1289 ft 4 kts 10°
2026-05-06 17:51 48.68851 9.19583 1291 ft 4 kts 40°
2026-05-06 17:51 48.68839 9.19558 1289 ft 1 kts 74°
2026-05-06 17:54 48.68839 9.19561 1285 ft 2 kts 74°
2026-05-06 17:54 48.68869 9.19719 1287 ft 24 kts 73°
2026-05-06 17:55 48.68863 9.19879 1286 ft 12 kts 160°
2026-05-06 17:55 48.68821 9.19946 1288 ft 9 kts 90°
2026-05-06 17:55 48.68851 9.20108 1287 ft 21 kts 75°
2026-05-06 17:55 48.68888 9.20308 1285 ft 22 kts 74°
2026-05-06 17:56 48.68947 9.20608 1287 ft 32 kts 75°
2026-05-06 17:56 48.69007 9.20929 1288 ft 31 kts 74°
2026-05-06 17:56 48.69063 9.21229 1290 ft 28 kts 74°
2026-05-06 17:56 48.69116 9.21502 1285 ft 26 kts 74°
2026-05-06 17:57 48.69164 9.21756 1290 ft 25 kts 74°
2026-05-06 17:57 48.69209 9.21998 1287 ft 23 kts 74°
2026-05-06 17:57 48.69253 9.22229 1289 ft 23 kts 72°
2026-05-06 17:57 48.69296 9.22456 1289 ft 22 kts 73°
2026-05-06 17:58 48.69344 9.22699 1287 ft 29 kts 73°
2026-05-06 17:58 48.69399 9.22999 1289 ft 29 kts 73°
2026-05-06 17:58 48.69454 9.23284 1290 ft 28 kts 74°
2026-05-06 17:58 48.69505 9.23553 1285 ft 26 kts 74°
2026-05-06 17:59 48.69553 9.23808 1290 ft 25 kts 74°
2026-05-06 17:59 48.69600 9.24050 1288 ft 23 kts 73°
2026-05-06 17:59 48.69572 9.24248 1287 ft 15 kts 118°
2026-05-06 17:59 48.69529 9.24301 1287 ft 6 kts 162°
2026-05-06 18:00 48.69507 9.24311 1289 ft 1 kts 164°
2026-05-06 18:00 48.69505 9.24311 1289 ft 0 kts 164°
2026-05-06 18:00 48.69505 9.24312 1289 ft 1 kts 164°
2026-05-06 18:01 48.69502 9.24313 1288 ft 2 kts 164°
2026-05-06 18:01 48.69422 9.24348 1286 ft 13 kts 166°
2026-05-06 18:01 48.69393 9.24330 1286 ft 0 kts 250°
2026-05-06 18:01 48.69393 9.24327 1286 ft 1 kts 253°
2026-05-06 18:02 48.69393 9.24326 1286 ft 0 kts 252°
2026-05-06 18:02 48.69376 9.24235 1289 ft 36 kts 255°
2026-05-06 18:02 48.69236 9.23501 1286 ft 107 kts 254°
2026-05-06 18:03 48.68975 9.22138 1295 ft 160 kts 253°
2026-05-06 18:03 48.68660 9.20454 1846 ft 169 kts 253°
2026-05-06 18:03 48.68339 9.18754 2719 ft 170 kts 253°
2026-05-06 18:03 48.67989 9.16930 3180 ft 193 kts 253°
2026-05-06 18:04 48.67584 9.14853 3693 ft 216 kts 253°
2026-05-06 18:04 48.67142 9.12622 4554 ft 225 kts 253°
2026-05-06 18:04 48.66468 9.10456 5432 ft 232 kts 233°
2026-05-06 18:04 48.65133 9.09061 6292 ft 243 kts 196°
2026-05-06 18:05 48.63435 9.09208 7147 ft 254 kts 160°
2026-05-06 18:05 48.62017 9.10833 8004 ft 266 kts 128°
2026-05-06 18:05 48.61351 9.13519 8766 ft 280 kts 98°
2026-05-06 18:05 48.61372 9.16551 9409 ft 296 kts 82°
2026-05-06 18:06 48.61629 9.19680 10104 ft 309 kts 85°
2026-05-06 18:06 48.61810 9.23043 10433 ft 332 kts 87°
2026-05-06 18:06 48.62164 9.26562 11053 ft 344 kts 76°
2026-05-06 18:06 48.62996 9.29995 11634 ft 351 kts 69°
2026-05-06 18:07 48.63935 9.33416 12380 ft 354 kts 68°
2026-05-06 18:07 48.64904 9.36864 13200 ft 359 kts 68°
2026-05-06 18:07 48.65900 9.40364 13885 ft 364 kts 68°
2026-05-06 18:07 48.66906 9.43889 14623 ft 366 kts 68°
2026-05-06 18:08 48.67902 9.47386 15372 ft 368 kts 68°
2026-05-06 18:08 48.68915 9.50970 16149 ft 370 kts 69°
2026-05-06 18:08 48.69922 9.54556 16929 ft 371 kts 69°
2026-05-06 18:08 48.70931 9.58166 17678 ft 373 kts 69°
2026-05-06 18:09 48.71944 9.61796 18363 ft 376 kts 69°
2026-05-06 18:09 48.72965 9.65470 18914 ft 381 kts 70°
2026-05-06 18:09 48.74001 9.69189 19500 ft 385 kts 70°
2026-05-06 18:09 48.75048 9.72937 20099 ft 388 kts 70°
2026-05-06 18:10 48.76104 9.76721 20680 ft 391 kts 70°
2026-05-06 18:10 48.77164 9.80541 21282 ft 394 kts 70°
2026-05-06 18:10 48.78226 9.84382 21863 ft 397 kts 70°
2026-05-06 18:10 48.79296 9.88260 22439 ft 400 kts 71°
2026-05-06 18:11 48.80372 9.92158 23006 ft 403 kts 71°
2026-05-06 18:11 48.81460 9.96098 23527 ft 406 kts 71°
2026-05-06 18:11 48.82555 10.00069 23953 ft 409 kts 71°
2026-05-06 18:11 48.83657 10.04075 24385 ft 413 kts 71°
2026-05-06 18:12 48.84567 10.08148 24786 ft 412 kts 80°
2026-05-06 18:12 48.85007 10.12432 25138 ft 411 kts 91°
2026-05-06 18:12 48.84967 10.16764 25502 ft 410 kts 101°
2026-05-06 18:12 48.84619 10.21078 25910 ft 413 kts 102°
2026-05-06 18:13 48.84268 10.25419 26312 ft 416 kts 102°
2026-05-06 18:13 48.83919 10.29804 26717 ft 419 kts 102°
2026-05-06 18:13 48.83559 10.34212 27116 ft 421 kts 104°
2026-05-06 18:13 48.82877 10.38512 27502 ft 419 kts 114°
2026-05-06 18:14 48.81723 10.42548 27883 ft 416 kts 123°
2026-05-06 18:14 48.80147 10.46197 28255 ft 413 kts 133°
2026-05-06 18:14 48.78231 10.49428 28631 ft 413 kts 138°
2026-05-06 18:14 48.76241 10.52584 28955 ft 415 kts 139°
2026-05-06 18:15 48.74242 10.55761 29328 ft 419 kts 139°
2026-05-06 18:15 48.72227 10.58975 29704 ft 422 kts 138°
2026-05-06 18:15 48.70202 10.62213 30036 ft 424 kts 138°
2026-05-06 18:15 48.68168 10.65462 30339 ft 427 kts 139°
2026-05-06 18:16 48.66114 10.68731 30635 ft 429 kts 139°
2026-05-06 18:16 48.64080 10.71963 30820 ft 431 kts 139°
2026-05-06 18:16 48.62054 10.75239 30854 ft 419 kts 135°
2026-05-06 18:16 48.60404 10.78847 30855 ft 423 kts 124°
2026-05-06 18:17 48.59230 10.83005 30843 ft 438 kts 112°
2026-05-06 18:17 48.58646 10.87581 30843 ft 449 kts 99°
2026-05-06 18:17 48.58394 10.97080 30842 ft 455 kts 97°
2026-05-06 18:18 48.58137 11.06629 30836 ft 455 kts 97°
2026-05-06 18:18 48.57866 11.16182 30835 ft 455 kts 97°
2026-05-06 18:19 48.57675 11.25760 30809 ft 456 kts 96°
2026-05-06 18:19 48.57526 11.35343 30752 ft 456 kts 96°
2026-05-06 18:20 48.57351 11.44911 30764 ft 456 kts 96°
2026-05-06 18:20 48.57144 11.54486 30772 ft 456 kts 97°
2026-05-06 18:21 48.56430 11.63833 30790 ft 448 kts 108°
2026-05-06 18:21 48.55084 11.73032 30795 ft 449 kts 108°
2026-05-06 18:22 48.53742 11.82238 30779 ft 450 kts 107°
2026-05-06 18:22 48.52386 11.91479 30792 ft 452 kts 107°
2026-05-06 18:23 48.51012 12.00727 30802 ft 453 kts 107°
2026-05-06 18:23 48.49624 12.10001 30810 ft 453 kts 107°
2026-05-06 18:24 48.48238 12.19267 30773 ft 454 kts 107°
2026-05-06 18:24 48.46839 12.28562 30775 ft 455 kts 107°
2026-05-06 18:25 48.45663 12.36307 30785 ft 456 kts 107°
2026-05-06 18:25 48.44239 12.45647 30785 ft 457 kts 107°
2026-05-06 18:26 48.42809 12.54968 30777 ft 457 kts 108°
2026-05-06 18:26 48.41363 12.64292 30782 ft 457 kts 108°
2026-05-06 18:27 48.39992 12.73593 30771 ft 460 kts 102°
2026-05-06 18:27 48.39811 12.78433 30773 ft 466 kts 91°
2026-05-06 18:27 48.39969 12.83305 30773 ft 466 kts 91°
2026-05-06 18:28 48.40265 12.93059 30774 ft 466 kts 91°
2026-05-06 18:28 48.40539 13.02836 30742 ft 467 kts 92°
2026-05-06 18:29 48.40810 13.12624 30734 ft 469 kts 92°
2026-05-06 18:29 48.41086 13.22464 30710 ft 471 kts 91°
2026-05-06 18:30 48.41357 13.32318 30726 ft 467 kts 91°
2026-05-06 18:30 48.41561 13.37130 30739 ft 455 kts 90°
2026-05-06 18:30 48.41834 13.41847 30727 ft 451 kts 89°
2026-05-06 18:31 48.42451 13.51165 30722 ft 453 kts 89°
2026-05-06 18:31 48.43050 13.60715 30712 ft 456 kts 90°
2026-05-06 18:32 48.43593 13.70229 30714 ft 456 kts 90°
2026-05-06 18:32 48.44108 13.79689 30701 ft 456 kts 90°
2026-05-06 18:33 48.44622 13.89204 30697 ft 455 kts 90°
2026-05-06 18:33 48.45147 13.98694 30282 ft 452 kts 91°
2026-05-06 18:34 48.45406 14.03407 29811 ft 449 kts 91°
2026-05-06 18:34 48.45657 14.08074 29299 ft 445 kts 91°
2026-05-06 18:34 48.45898 14.12710 28783 ft 441 kts 91°
2026-05-06 18:34 48.46132 14.17287 28150 ft 435 kts 91°
2026-05-06 18:35 48.46364 14.21807 27485 ft 431 kts 91°
2026-05-06 18:35 48.46595 14.26276 26843 ft 425 kts 91°
2026-05-06 18:35 48.46821 14.30692 26219 ft 420 kts 91°
2026-05-06 18:35 48.47042 14.35059 25612 ft 415 kts 91°
2026-05-06 18:36 48.47259 14.39370 24994 ft 410 kts 91°
2026-05-06 18:36 48.47471 14.43652 24162 ft 414 kts 91°
2026-05-06 18:36 48.47681 14.48054 23081 ft 427 kts 91°
2026-05-06 18:36 48.47896 14.52572 21977 ft 436 kts 90°
2026-05-06 18:37 48.48117 14.57131 21248 ft 436 kts 90°
2026-05-06 18:37 48.48339 14.61615 20606 ft 433 kts 90°
2026-05-06 18:37 48.48560 14.66125 20009 ft 430 kts 90°
2026-05-06 18:37 48.48774 14.70603 19427 ft 426 kts 90°
2026-05-06 18:38 48.48985 14.75046 18850 ft 423 kts 90°
2026-05-06 18:38 48.49191 14.79461 18305 ft 420 kts 90°
2026-05-06 18:38 48.49393 14.83841 17736 ft 417 kts 90°
2026-05-06 18:38 48.49594 14.88185 17164 ft 413 kts 89°
2026-05-06 18:39 48.49795 14.92500 16774 ft 410 kts 89°
2026-05-06 18:39 48.49991 14.96783 16694 ft 409 kts 89°
2026-05-06 18:39 48.50184 15.01071 16718 ft 410 kts 89°
2026-05-06 18:40 48.50561 15.09656 16718 ft 410 kts 89°
2026-05-06 18:40 48.50748 15.13950 16718 ft 410 kts 90°
2026-05-06 18:40 48.50932 15.18236 16719 ft 410 kts 90°
2026-05-06 18:40 48.51114 15.22521 16721 ft 410 kts 90°
2026-05-06 18:41 48.51297 15.26803 16721 ft 409 kts 90°
2026-05-06 18:41 48.51479 15.31075 16693 ft 408 kts 89°
2026-05-06 18:41 48.51656 15.35292 16720 ft 407 kts 89°
2026-05-06 18:41 48.51830 15.39535 16457 ft 403 kts 89°
2026-05-06 18:42 48.51997 15.43730 15911 ft 399 kts 91°
2026-05-06 18:42 48.51859 15.47863 15396 ft 392 kts 98°
2026-05-06 18:42 48.51627 15.51941 14906 ft 388 kts 98°
2026-05-06 18:42 48.51382 15.55983 14424 ft 384 kts 98°
2026-05-06 18:43 48.51135 15.59980 13951 ft 381 kts 98°
2026-05-06 18:43 48.50892 15.63946 13721 ft 379 kts 98°
2026-05-06 18:43 48.50658 15.67901 13715 ft 379 kts 97°
2026-05-06 18:43 48.50428 15.71858 13708 ft 379 kts 97°
2026-05-06 18:44 48.50200 15.75791 13269 ft 374 kts 98°
2026-05-06 18:44 48.49975 15.79679 12740 ft 371 kts 98°
2026-05-06 18:44 48.49751 15.83536 12180 ft 368 kts 98°
2026-05-06 18:44 48.49527 15.87363 11593 ft 365 kts 98°
2026-05-06 18:45 48.49299 15.91165 11038 ft 363 kts 98°
2026-05-06 18:45 48.49072 15.94912 10788 ft 351 kts 98°
2026-05-06 18:45 48.48847 15.98594 10079 ft 355 kts 98°
2026-05-06 18:45 48.48611 16.02308 9465 ft 355 kts 99°
2026-05-06 18:46 48.48004 16.05783 9164 ft 339 kts 116°
2026-05-06 18:46 48.46888 16.08789 9052 ft 320 kts 130°
2026-05-06 18:46 48.45411 16.11159 8920 ft 303 kts 144°
2026-05-06 18:46 48.43700 16.12848 8788 ft 287 kts 157°
2026-05-06 18:47 48.41885 16.14057 8629 ft 296 kts 160°
2026-05-06 18:47 48.39887 16.15352 8459 ft 319 kts 159°
2026-05-06 18:47 48.37886 16.16666 8320 ft 307 kts 159°
2026-05-06 18:47 48.36113 16.18240 8124 ft 290 kts 139°
2026-05-06 18:48 48.34868 16.20591 7582 ft 284 kts 132°
2026-05-06 18:48 48.33422 16.22499 6926 ft 274 kts 152°
2026-05-06 18:48 48.31946 16.24306 6277 ft 278 kts 131°
2026-05-06 18:48 48.31130 16.26942 5738 ft 280 kts 102°
2026-05-06 18:49 48.31245 16.29768 5550 ft 266 kts 76°
2026-05-06 18:49 48.31818 16.32376 5104 ft 262 kts 71°
2026-05-06 18:49 48.32458 16.34915 4892 ft 258 kts 71°
2026-05-06 18:49 48.33110 16.37447 4523 ft 260 kts 70°
2026-05-06 18:50 48.33768 16.39979 4216 ft 260 kts 71°
2026-05-06 18:50 48.34207 16.42547 4016 ft 250 kts 93°
2026-05-06 18:50 48.33910 16.45042 3972 ft 240 kts 116°
2026-05-06 18:50 48.33115 16.47212 3982 ft 236 kts 134°
2026-05-06 18:51 48.31949 16.48884 3995 ft 229 kts 151°
2026-05-06 18:51 48.30543 16.49924 3998 ft 223 kts 168°
2026-05-06 18:51 48.29051 16.50562 3960 ft 224 kts 169°
2026-05-06 18:51 48.27566 16.51195 3715 ft 220 kts 170°
2026-05-06 18:52 48.26118 16.51814 3436 ft 211 kts 170°
2026-05-06 18:52 48.24741 16.52401 3174 ft 206 kts 170°
2026-05-06 18:52 48.23343 16.52993 2904 ft 205 kts 169°
2026-05-06 18:52 48.22032 16.53553 2644 ft 192 kts 169°
2026-05-06 18:53 48.20779 16.54086 2393 ft 183 kts 169°
2026-05-06 18:53 48.19566 16.54600 2152 ft 180 kts 169°
2026-05-06 18:53 48.18383 16.55103 1935 ft 171 kts 169°
2026-05-06 18:53 48.17304 16.55563 1706 ft 151 kts 169°
2026-05-06 18:54 48.16349 16.55968 1532 ft 135 kts 168°
2026-05-06 18:54 48.15469 16.56340 1345 ft 129 kts 167°
2026-05-06 18:54 48.14523 16.56736 1506 ft 157 kts 168°
2026-05-06 18:54 48.13399 16.57234 2152 ft 178 kts 167°
2026-05-06 18:55 48.12207 16.57823 3152 ft 182 kts 167°
2026-05-06 18:55 48.10996 16.58483 4267 ft 188 kts 167°
2026-05-06 18:55 48.09746 16.59191 5062 ft 196 kts 167°
2026-05-06 18:55 48.08450 16.59935 5750 ft 205 kts 166°
2026-05-06 18:56 48.07101 16.60695 5954 ft 207 kts 166°
2026-05-06 18:56 48.05748 16.61445 5999 ft 208 kts 166°
2026-05-06 18:56 48.04396 16.62190 6003 ft 207 kts 166°
2026-05-06 18:56 48.03050 16.62936 6005 ft 207 kts 165°
2026-05-06 18:57 48.01858 16.64203 6004 ft 221 kts 134°
2026-05-06 18:57 48.01289 16.66409 6007 ft 239 kts 100°
2026-05-06 18:57 48.01513 16.68880 6006 ft 249 kts 79°
2026-05-06 18:57 48.02033 16.71395 6008 ft 251 kts 76°
2026-05-06 18:58 48.02574 16.73842 6010 ft 251 kts 76°
2026-05-06 18:58 48.03125 16.76313 6007 ft 250 kts 75°
2026-05-06 18:58 48.03676 16.78782 6006 ft 251 kts 76°
2026-05-06 18:58 48.04236 16.81250 6006 ft 251 kts 72°
2026-05-06 18:59 48.05211 16.83410 6005 ft 254 kts 39°
2026-05-06 18:59 48.06771 16.84562 6010 ft 250 kts
2026-05-06 18:59 48.08455 16.84390 6009 ft 240 kts 334°
2026-05-06 18:59 48.09979 16.83413 6008 ft 237 kts 327°
2026-05-06 19:00 48.11456 16.82314 6003 ft 237 kts 326°
2026-05-06 19:00 48.12926 16.81197 6004 ft 237 kts 326°
2026-05-06 19:00 48.14400 16.80076 6004 ft 237 kts 326°
2026-05-06 19:00 48.15373 16.79335 6005 ft 237 kts 326°
2026-05-06 19:01 48.17302 16.77764 6004 ft 235 kts 321°
2026-05-06 19:01 48.18696 16.76491 6003 ft 234 kts 321°
2026-05-06 19:01 48.20084 16.75207 6002 ft 234 kts 320°
2026-05-06 19:01 48.21453 16.73937 6005 ft 234 kts 320°
2026-05-06 19:02 48.22856 16.72636 6002 ft 234 kts 320°
2026-05-06 19:02 48.24225 16.71366 6002 ft 234 kts 320°
2026-05-06 19:02 48.25611 16.70082 6002 ft 234 kts 320°
2026-05-06 19:02 48.26998 16.68799 6001 ft 234 kts 320°
2026-05-06 19:03 48.28381 16.67520 5999 ft 233 kts 321°
2026-05-06 19:03 48.29760 16.66241 6002 ft 233 kts 321°
2026-05-06 19:03 48.31139 16.64961 6000 ft 233 kts 322°
2026-05-06 19:03 48.32508 16.63657 5998 ft 233 kts 321°
2026-05-06 19:04 48.33872 16.62338 5994 ft 234 kts 320°
2026-05-06 19:04 48.35237 16.61016 5993 ft 234 kts 320°
2026-05-06 19:04 48.36603 16.59692 5992 ft 232 kts 320°
2026-05-06 19:04 48.37966 16.58388 6003 ft 246 kts 324°
2026-05-06 19:05 48.39626 16.57607 6001 ft 259 kts 350°
2026-05-06 19:05 48.41419 16.57479 5979 ft 249 kts 354°
2026-05-06 19:05 48.43099 16.57445 5982 ft 237 kts 355°
2026-05-06 19:05 48.44731 16.57409 5980 ft 234 kts 356°
2026-05-06 19:06 48.46360 16.57391 5976 ft 234 kts 355°
2026-05-06 19:06 48.47995 16.57395 5978 ft 235 kts 355°
2026-05-06 19:06 48.49624 16.57388 5980 ft 234 kts 356°
2026-05-06 19:06 48.51254 16.57380 5980 ft 234 kts 356°
2026-05-06 19:07 48.52874 16.57332 5975 ft 232 kts 348°
2026-05-06 19:07 48.53909 16.56993 5980 ft 229 kts 338°
2026-05-06 19:07 48.55946 16.55976 5982 ft 234 kts 333°
2026-05-06 19:07 48.57200 16.54546 5975 ft 224 kts 301°
2026-05-06 19:08 48.57882 16.52471 5983 ft 220 kts 287°
2026-05-06 19:08 48.58417 16.50308 5965 ft 220 kts 285°
2026-05-06 19:08 48.58865 16.48132 5814 ft 212 kts 270°
2026-05-06 19:08 48.58593 16.46076 5668 ft 194 kts 234°
2026-05-06 19:09 48.57629 16.44842 5526 ft 178 kts 203°
2026-05-06 19:09 48.56485 16.44280 5247 ft 173 kts 197°
2026-05-06 19:09 48.55312 16.43850 4970 ft 174 kts 196°
2026-05-06 19:09 48.54100 16.43538 4967 ft 181 kts 186°
2026-05-06 19:10 48.52827 16.43576 4965 ft 183 kts 181°
2026-05-06 19:10 48.51558 16.43708 4960 ft 183 kts 180°
2026-05-06 19:10 48.50288 16.43850 4962 ft 183 kts 180°
2026-05-06 19:10 48.49022 16.43977 4963 ft 182 kts 181°
2026-05-06 19:11 48.47760 16.44101 4967 ft 182 kts 180°
2026-05-06 19:11 48.46925 16.44181 4978 ft 181 kts 180°
2026-05-06 19:11 48.45660 16.44295 4979 ft 183 kts 181°
2026-05-06 19:11 48.44385 16.44364 4982 ft 185 kts 180°
2026-05-06 19:12 48.43102 16.44661 4979 ft 187 kts 172°
2026-05-06 19:12 48.41833 16.45127 4981 ft 188 kts 170°
2026-05-06 19:12 48.40569 16.45648 4983 ft 188 kts 169°
2026-05-06 19:12 48.39319 16.46178 4985 ft 186 kts 169°
2026-05-06 19:13 48.38078 16.46708 4983 ft 186 kts 169°
2026-05-06 19:13 48.36829 16.47241 4987 ft 187 kts 170°
2026-05-06 19:13 48.35586 16.47773 4983 ft 181 kts 170°
2026-05-06 19:13 48.34361 16.48295 4968 ft 186 kts 170°
2026-05-06 19:14 48.33116 16.48827 4808 ft 186 kts 171°
2026-05-06 19:14 48.31871 16.49359 4584 ft 186 kts 171°
2026-05-06 19:14 48.30640 16.49885 4347 ft 185 kts 171°
2026-05-06 19:14 48.29408 16.50411 4107 ft 183 kts 170°
2026-05-06 19:15 48.28192 16.50929 3852 ft 180 kts 171°
2026-05-06 19:15 48.27012 16.51434 3617 ft 172 kts 171°
2026-05-06 19:15 48.25888 16.51913 3399 ft 165 kts 172°
2026-05-06 19:15 48.24792 16.52379 3183 ft 162 kts 172°
2026-05-06 19:16 48.23719 16.52835 2980 ft 160 kts 172°
2026-05-06 19:16 48.22653 16.53288 2766 ft 158 kts 172°
2026-05-06 19:16 48.21604 16.53733 2556 ft 156 kts 171°
2026-05-06 19:16 48.20562 16.54176 2354 ft 155 kts 171°
2026-05-06 19:17 48.19544 16.54609 2151 ft 149 kts 170°
2026-05-06 19:17 48.18569 16.55023 1966 ft 142 kts 170°
2026-05-06 19:17 48.17632 16.55421 1777 ft 138 kts 170°
2026-05-06 19:17 48.16717 16.55808 1609 ft 136 kts 169°
2026-05-06 19:18 48.15799 16.56196 1418 ft 140 kts 165°
2026-05-06 19:18 48.14851 16.56598 1227 ft 144 kts 166°
2026-05-06 19:18 48.13910 16.56997 1032 ft 133 kts 165°
2026-05-06 19:18 48.13043 16.57364 851 ft 127 kts 163°
2026-05-06 19:19 48.12204 16.57721 696 ft 124 kts 165°
2026-05-06 19:19 48.11405 16.58061 607 ft 111 kts 165°
2026-05-06 19:19 48.10911 16.58267 615 ft 30 kts 165°
2026-05-06 19:19 48.10863 16.58286 621 ft 8 kts 165°
2026-05-06 19:20 48.10680 16.58367 613 ft 48 kts 164°
2026-05-06 19:20 48.10384 16.58469 622 ft 30 kts 180°
2026-05-06 19:20 48.10188 16.58423 615 ft 27 kts 195°
2026-05-06 19:20 48.10121 16.58374 624 ft 1 kts 223°
2026-05-06 19:21 48.10119 16.58370 627 ft 3 kts 224°
2026-05-06 19:21 48.10097 16.58302 624 ft 2 kts 254°
2026-05-06 19:21 48.10096 16.58296 622 ft 0 kts 253°
2026-05-06 19:24 48.10092 16.58243 615 ft 15 kts 278°
2026-05-06 19:24 48.10171 16.58164 623 ft 14 kts 342°
2026-05-06 19:24 48.10240 16.58133 624 ft 9 kts 345°
2026-05-06 19:25 48.10279 16.58117 622 ft 1 kts 345°
2026-05-06 19:25 48.10285 16.58115 622 ft 0 kts 345°
2026-05-06 19:27 48.10290 16.58113 623 ft 4 kts 345°
2026-05-06 19:27 48.10332 16.58096 617 ft 6 kts 345°
2026-05-06 19:28 48.10366 16.58081 625 ft 0 kts 344°
2026-05-06 19:36 48.10372 16.58079 622 ft 4 kts 344°
2026-05-06 19:36 48.10452 16.58045 625 ft 17 kts 344°
2026-05-06 19:36 48.10566 16.57999 626 ft 17 kts 345°
2026-05-06 19:36 48.10672 16.57955 621 ft 15 kts 345°
2026-05-06 19:37 48.10773 16.57911 623 ft 16 kts 342°
2026-05-06 19:37 48.10877 16.57865 623 ft 15 kts 344°
2026-05-06 19:37 48.10975 16.57823 623 ft 17 kts 343°
2026-05-06 19:37 48.11067 16.57783 618 ft 22 kts 343°
2026-05-06 19:38 48.11273 16.57699 612 ft 24 kts 344°
2026-05-06 19:38 48.11432 16.57632 619 ft 23 kts 345°
2026-05-06 19:38 48.11554 16.57579 611 ft 18 kts 344°
2026-05-06 19:38 48.11685 16.57523 617 ft 19 kts 344°
2026-05-06 19:39 48.11798 16.57455 603 ft 16 kts 306°
2026-05-06 19:39 48.11823 16.57298 603 ft 15 kts 291°
2026-05-06 19:39 48.11858 16.57154 602 ft 15 kts 279°
2026-05-06 19:39 48.11889 16.57041 600 ft 15 kts 294°
2026-05-06 19:40 48.11945 16.56871 599 ft 10 kts 295°
2026-05-06 19:40 48.11956 16.56832 598 ft 1 kts 287°
2026-05-06 19:40 48.11917 16.56782 599 ft 13 kts 205°
2026-05-06 19:40 48.11888 16.56764 600 ft 0 kts 203°